Flag for Qatar Weather past 2 weeks in Al-Jamiliyah, Qatar

Now
53 °F

Fog.


Feels Like: 51 °F
Forecast: 68 / 74 °F
Wind: 7 mph from South

Location: Al Udeid

Current Time: Dec 21, 2014 at 6:04:19 AM

Latest Report: Dec 21, 2014 at 4:58 AM


Visibility: 5 mi

Pressure: 30.03 "Hg

Humidity: 80%

Dew point: 47 °F

Location of Al-JamiliyahLocation

Historic Weather in Al-Jamiliyah — Graph

°F

Al-Jamiliyah temperature yesterday

Maximum temperature yesterday: 74 °F (at 1:58 PM)
Minimum temperature yesterday: 53 °F (at 5:58 AM)
Average temperature yesterday: 63 °F

Past Weeks' High & Low Weather Summary

 TemperatureHumidityPressure
High81 °F (Dec 15, 12:58 PM)100% (Dec 6, 4:58 AM)30.27 "Hg (Dec 6, 4:58 AM)
Low53 °F (Dec 21, 4:58 AM)26% (Dec 15, 12:58 PM)30.02 "Hg (Dec 16, 2:58 PM)
Average68 °F72%30.12 "Hg
* Reported Dec 6 4:58 AM — Dec 21 4:58 AM, Al-Jamiliyah, Weather by CustomWeather, © 2014

Note: Actual official high and low records may vary slightly from our data, if they occured in-between our weather recording intervals... More about our weather records

Advertising

Al-Jamiliyah weather history for previous 24 hours

 ConditionsComfort  
Time TempWeatherWind HumidityBarometerVisibility
4:58 AM
Dec 21
53 °FFog.7 mph80%30.03 "Hg5 mi
3:58 AM53 °FFog.7 mph82%30.03 "Hg5 mi
2:58 AM55 °FClear.5 mph76%30.03 "HgN/A
1:58 AM56 °FClear.3 mph77%30.04 "HgN/A
12:58 AM56 °FPassing clouds.3 mph76%30.06 "HgN/A
11:58 PM
Dec 20
58 °FPassing clouds.2 mph72%30.06 "HgN/A
10:58 PM58 °FSunny.3 mph70%30.06 "HgN/A
9:58 PM61 °FSunny.3 mph67%30.09 "HgN/A
8:58 PM61 °FSunny.5 mph62%30.09 "HgN/A
7:58 PM65 °FSunny.3 mph49%30.10 "HgN/A
6:58 PM68 °FPassing clouds.1 mph38%30.10 "HgN/A
5:58 PM68 °FPassing clouds.3 mph38%30.09 "HgN/A
4:58 PM71 °FPassing clouds.5 mph35%30.09 "HgN/A
3:58 PM73 °FSunny.No wind31%30.08 "HgN/A
2:58 PM73 °FSunny.2 mph26%30.09 "HgN/A
1:58 PM74 °FClear.1 mph26%30.09 "HgN/A
12:58 PM73 °FClear.2 mph29%30.11 "HgN/A
11:58 AM72 °FPassing clouds.8 mph35%30.14 "HgN/A
10:58 AM71 °FPassing clouds.6 mph43%30.19 "HgN/A
9:58 AM68 °FHaze.6 mph54%30.22 "Hg6 mi
8:58 AM62 °FFog.5 mph74%30.22 "Hg4 mi
7:58 AM57 °FFog.6 mph80%30.21 "Hg3 mi
6:58 AM54 °FFog.1 mph84%30.19 "Hg2 mi
Weather by CustomWeather, © 2014

See weather overviewHow to use our weather pages